Location: Burtsch�tz
(51.0528°N, 12.1764°E)
Time: 07:44:21
(UTC+00:00)

Meteor 2-8 Rocket - Pass Details

Date: 29 October 2020
Orbit: 937 x 957 km, 82.5° (Epoch: 01 December)

Event Time Altitude Azimuth Distance (km) Brightness Sun altitude
Rises 17:13:04 0° 185° (S) 3,605 7.6 -13.5°
Reaches altitude 10° 17:15:32 10° 184° (S) 2,668 6.9 -13.9°
Maximum altitude 17:21:38 82° 99° (E) 970 4.4 -14.8°
Drops below altitude 10° 17:27:49 10° 12° (NNE) 2,698 6.7 -15.8°
Sets 17:30:20 0° 12° (NNE) 3,650 7.4 -16.2°
